IRIDIUM 167 (43931 NORAD) Tracking and Keplerian Element Data

This shows tracking and keplerian element data for the satellite.

Feedback or suggestion? Click here.




ElementValue
Catalog43931
NameIRIDIUM 167
Epoch Orbit19408
Epoch Day269.57587396
Epoch Year2022
RAAN201.762
Inclination86.4035
Eccentricity0.0001783
Argument of Perigee78.6823
Mean Anonmoly281.4573
Mean Motion14.34217922
Decay Rate2.01E-06
L11 43931U 19002K 22269.57587396 .00000201 00000+0 64781-4 0 9995
L22 43931 86.4035 201.7620 0001783 78.6823 281.4573 14.34217922194086

Live tracking and technical data element details for IRIDIUM 167 (NORAD 43931). IRIDIUM 167 can be tracked NOW for your location showing map with azimuth and elevation plus other details from your city location.

Track the satellite on the map from your city or location and see movement details for azimuth, elevation, latitude, longitude, range, height, and movement on the map or in text.







IsCatalogInMostPopularTable: catalog: 43931, numindb: 595
Update: records affected: 1



GetName: 43931 IRIDIUM 167

Hit Count: updated at: Fri, 30 Sep 2022 03:21:16 GMT